Tracking 29892 objects as of 21-Nov-2024
HD Live streaming from Space Station
objects crossing your sky now

STARLINK-31789

Track STARLINK-31789 now!
10-day predictions
STARLINK-31789 is classified as:


NORAD ID: 59644
Int'l Code: 2024-082P
Perigee: 449.8 km
Apogee: 452.2 km
Inclination: 43.0 °
Period: 93.5 minutes
Semi major axis: 6821 km
RCS: Unknown
Launch date: May 3, 2024
Source: United States (US)
Launch site: AIR FORCE EASTERN TEST RANGE (AFETR)
Your satellite tracking list
Your tracking list is empty




NASA's NSSDC Master Catalog

Two Line Element Set (TLE):
1 59644U 24082P   24325.33997786  .00012206  00000-0  29834-3 0  9992
2 59644  43.0030 309.3067 0001774 260.7473  99.3183 15.40766542 32341
Source of the keplerian elements: AFSPC